Worcester, MA

6:27 AM EST on February 18, 2018 (GMT -0500)
Worcester Regional

Weather History for KORH - June, 2013

Change the Weather History Date:

Saturday, June 29, 2013

  Actual Average Record
Temperature  
Mean Temperature 74 °F 68 °F  
Max Temperature 79 °F 77 °F 95 °F (1933)
Min Temperature 68 °F 60 °F 49 °F (1968)
Degree Days  
Heating Degree Days 0 1  
Month to date heating degree days 67 81  
Since 1 June heating degree days 67 81  
Since 1 July heating degree days 6279 6715  
Cooling Degree Days 9 4  
Month to date cooling degree days 93 79  
Year to date cooling degree days 117 101  
Since 1 June cooling degree days 93 79  
Growing Degree Days 24 (Base 50)    
Moisture  
Dew Point 67 °F    
Average Humidity 81    
Maximum Humidity 100    
Minimum Humidity 62    
Precipitation  
Precipitation T in 0.13 in 2.17 in (1980)
Month to date precipitation 10.06 4.07  
Year to date precipitation 26.87 23.30  
Sea Level Pressure  
Sea Level Pressure 29.61 in    
Wind  
Wind Speed 12 mph (SSW)    
Max Wind Speed 20 mph    
Max Gust Speed 26 mph    
Visibility 7 miles    
Events Fog , Rain    
T = Trace of Precipitation, MM = Missing Value Source: NWS Daily Summary

Daily Weather History Graph

Daily Weather History Graph

Search for Another Location

Airport or City:

Trip Planner

Search our weather history database for the weather conditions in past years. The results will help you decide how hot, cold, wet, or windy it might be!

Date:

Astronomy

Jun. 29, 2013 Rise Set
Actual Time 5:13 AM EDT 8:28 PM EDT
Civil Twilight 4:39 AM EDT 9:02 PM EDT
Nautical Twilight 3:54 AM EDT 9:47 PM EDT
Astronomical Twilight 3:00 AM EDT 10:41 PM EDT
Moon No Moon Rise 12:31 PM EDT (6/29)
Length of Visible Light 16h 23m
Length of Day
15h 14m
Waning Gibbous, 56% of the Moon is Illuminated
Jun 29
Waning Gibbous
Jun 30
Last Quarter
Jul 8
New
Jul 15
First Quarter
Jul 22
Full

Hourly Weather History & Observations

Time (EDT) Temp. Dew Point Humidity Pressure Visibility Wind Dir Wind Speed Gust Speed Precip Events Conditions
12:51 AM 68.0 °F 68.0 °F 100% 29.56 in 2.0 mi South 8.1 mph - N/A   Overcast
12:54 AM 68.0 °F 68.0 °F 100% 29.55 in 2.5 mi South 9.2 mph - N/A   Overcast
1:10 AM 68.0 °F 68.0 °F 100% 29.56 in 1.0 mi South 9.2 mph - N/A   Overcast
1:19 AM 68.0 °F 68.0 °F 100% 29.56 in 0.5 mi South 11.5 mph - N/A Fog Fog
1:54 AM 68.0 °F 68.0 °F 100% 29.53 in 1.0 mi South 11.5 mph - N/A   Mist
2:09 AM 68.0 °F 68.0 °F 100% 29.54 in 2.5 mi South 9.2 mph - N/A   Overcast
2:24 AM 68.0 °F 68.0 °F 100% 29.54 in 1.2 mi SSW 9.2 mph - N/A   Overcast
2:37 AM 68.0 °F 68.0 °F 100% 29.54 in 0.8 mi South 8.1 mph - N/A   Overcast
2:45 AM 68.0 °F 68.0 °F 100% 29.54 in 1.8 mi Variable 5.8 mph - N/A   Overcast
2:48 AM 68.0 °F 68.0 °F 100% 29.54 in 3.0 mi SSW 5.8 mph - N/A   Overcast
2:54 AM 68.0 °F 68.0 °F 100% 29.53 in 5.0 mi South 8.1 mph - N/A   Overcast
3:54 AM 68.0 °F 66.9 °F 96% 29.53 in 6.0 mi South 5.8 mph - N/A   Overcast
4:14 AM 68.0 °F 66.9 °F 96% 29.55 in 7.0 mi South 5.8 mph - N/A   Overcast
4:24 AM 68.0 °F 66.9 °F 96% 29.55 in 6.0 mi South 6.9 mph - N/A   Overcast
4:54 AM 68.0 °F 66.9 °F 96% 29.55 in 6.0 mi SSW 6.9 mph - N/A   Overcast
5:16 AM 68.0 °F 66.9 °F 96% 29.57 in 7.0 mi SW 4.6 mph - N/A   Overcast
5:54 AM 68.0 °F 66.9 °F 96% 29.57 in 7.0 mi South 8.1 mph - N/A   Overcast
6:54 AM 69.1 °F 66.0 °F 90% 29.57 in 8.0 mi SW 9.2 mph - N/A   Overcast
7:54 AM 70.0 °F 66.0 °F 87% 29.58 in 10.0 mi SW 10.4 mph - N/A   Mostly Cloudy
8:54 AM 72.0 °F 66.0 °F 81% 29.59 in 10.0 mi SSW 10.4 mph - N/A   Mostly Cloudy
9:41 AM 72.0 °F 66.9 °F 84% 29.61 in 10.0 mi SW 8.1 mph - N/A   Mostly Cloudy
9:54 AM 71.1 °F 66.9 °F 87% 29.61 in 10.0 mi SW 8.1 mph - N/A   Mostly Cloudy
10:32 AM 70.0 °F 68.0 °F 93% 29.61 in 7.0 mi SSW 9.2 mph - 0.00 in Rain Light Rain
10:44 AM 70.0 °F 68.0 °F 93% 29.61 in 8.0 mi SSW 9.2 mph - 0.00 in   Mostly Cloudy
10:54 AM 71.1 °F 68.0 °F 90% 29.61 in 8.0 mi SW 6.9 mph - 0.00 in   Overcast
11:19 AM 72.0 °F 66.9 °F 84% 29.62 in 10.0 mi South 13.8 mph - N/A   Mostly Cloudy
11:54 AM 73.0 °F 66.0 °F 79% 29.61 in 10.0 mi SW 13.8 mph - N/A   Mostly Cloudy
12:03 PM 75.0 °F 66.0 °F 73% 29.62 in 10.0 mi SW 12.7 mph - N/A   Scattered Clouds
12:54 PM 75.9 °F 64.9 °F 69% 29.62 in 10.0 mi SSW 15.0 mph 19.6 mph N/A   Scattered Clouds
1:54 PM 77.0 °F 64.9 °F 66% 29.62 in 10.0 mi SW 16.1 mph 24.2 mph N/A   Scattered Clouds
2:54 PM 79.0 °F 64.0 °F 60% 29.62 in 10.0 mi SSW 15.0 mph - N/A   Scattered Clouds
3:54 PM 78.1 °F 64.0 °F 62% 29.62 in 10.0 mi South 16.1 mph - N/A   Partly Cloudy
4:54 PM 78.1 °F 64.9 °F 64% 29.64 in 10.0 mi South 17.3 mph - N/A   Partly Cloudy
5:54 PM 77.0 °F 66.9 °F 71% 29.65 in 10.0 mi SSW 16.1 mph 21.9 mph N/A   Scattered Clouds
6:54 PM 73.9 °F 64.0 °F 71% 29.66 in 10.0 mi SSW 16.1 mph 24.2 mph N/A   Partly Cloudy
7:54 PM 73.0 °F 64.0 °F 73% 29.68 in 10.0 mi SSW 13.8 mph - N/A   Clear
8:54 PM 71.1 °F 64.9 °F 81% 29.69 in 10.0 mi SSW 10.4 mph - N/A   Clear
9:54 PM 69.1 °F 66.0 °F 90% 29.72 in 10.0 mi SSW 10.4 mph - N/A   Clear
10:37 PM 68.0 °F 66.9 °F 96% 29.74 in 10.0 mi SSW 10.4 mph - N/A   Partly Cloudy
10:54 PM 68.0 °F 66.9 °F 96% 29.73 in 10.0 mi SW 10.4 mph - N/A   Mostly Cloudy
11:39 PM 68.0 °F 66.0 °F 93% 29.75 in 10.0 mi SW 12.7 mph - N/A   Scattered Clouds
11:47 PM 68.0 °F 66.0 °F 93% 29.76 in 10.0 mi SW 11.5 mph - N/A   Mostly Cloudy
11:54 PM 68.0 °F 66.0 °F 93% 29.75 in 10.0 mi SW 11.5 mph - N/A   Mostly Cloudy